| time (UTC) | temp F | wind direction | speed MPH | gust MPH | rain 1hr in | rain 24hr in | rain mn in | humidity % | barometer mb |
| 20260901060047 | 82 | 154 | 0.0 | 0.0 | 0.00 | 0.00 | 0.00 | 55 | 1010.0 |
| 20260901055548 | 82 | 154 | 0.0 | 0.0 | 0.00 | 0.00 | 0.00 | 55 | 1009.9 |
| 20260901055048 | 82 | 154 | 0.0 | 0.0 | 0.00 | 0.00 | 0.00 | 55 | 1009.9 |
| 20260901054545 | 82 | 154 | 0.0 | 0.0 | 0.00 | 0.00 | 0.00 | 55 | 1009.9 |
| 20260901054047 | 82 | 154 | 0.0 | 0.0 | 0.00 | 0.00 | 0.00 | 55 | 1009.9 |
| 20260901053544 | 82 | 154 | 0.0 | 0.0 | 0.00 | 0.00 | 0.00 | 55 | 1009.7 |
| 20260901053044 | 82 | 154 | 0.0 | 0.0 | 0.00 | 0.00 | 0.00 | 55 | 1009.6 |
| 20260901052544 | 82 | 154 | 0.0 | 0.0 | 0.00 | 0.00 | 0.00 | 54 | 1009.6 |
| 20260901052042 | 82 | 154 | 0.0 | 0.0 | 0.00 | 0.00 | 0.00 | 54 | 1009.6 |
| 20260901051539 | 82 | 154 | 0.0 | 0.0 | 0.00 | 0.00 | 0.00 | 54 | 1009.6 |
| 20260901051039 | 82 | 154 | 0.0 | 0.0 | 0.00 | 0.00 | 0.00 | 54 | 1009.5 |
| 20260901050539 | 82 | 154 | 0.0 | 0.0 | 0.00 | 0.00 | 0.00 | 54 | 1009.5 |
| 20260901050039 | 82 | 154 | 0.0 | 0.0 | 0.00 | 0.00 | 0.00 | 54 | 1009.4 |
| 20260901045801 | 82 | 154 | 0.0 | 0.0 | 0.00 | 0.00 | 0.00 | 54 | 1009.4 |
| 20260901045034 | 82 | 154 | 0.0 | 0.0 | 0.00 | 0.00 | 0.00 | 53 | 1009.4 |
| 20260901044532 | 82 | 154 | 0.0 | 0.0 | 0.00 | 0.00 | 0.00 | 53 | 1009.4 |
| 20260901044033 | 83 | 154 | 0.0 | 0.0 | 0.00 | 0.00 | 0.00 | 53 | 1009.5 |
| 20260901043532 | 83 | 154 | 0.0 | 0.0 | 0.00 | 0.00 | 0.00 | 52 | 1009.5 |
| 20260901043033 | 83 | 154 | 0.0 | 0.0 | 0.00 | 0.00 | 0.00 | 52 | 1009.4 |
| 20260901042532 | 83 | 154 | 0.0 | 0.0 | 0.00 | 0.00 | 0.00 | 51 | 1009.4 |
| 20260901042254 | 83 | 154 | 0.0 | 0.0 | 0.00 | 0.00 | 0.00 | 51 | 1009.4 |
| 20260901041746 | 84 | 154 | 0.0 | 0.0 | 0.00 | 0.00 | 0.00 | 50 | 1009.5 |
| 20260901041019 | 84 | 154 | 0.0 | 0.0 | 0.00 | 0.00 | 0.00 | 50 | 1009.4 |
| 20260901040513 | 84 | 154 | 0.0 | 0.0 | 0.00 | 0.00 | 0.00 | 50 | 1009.4 |
| 20260901040006 | 84 | 154 | 0.0 | 0.0 | 0.00 | 0.00 | 0.00 | 49 | 1009.3 |
| 20260901035501 | 85 | 154 | 0.0 | 0.0 | 0.00 | 0.00 | 0.00 | 49 | 1009.3 |
| 20260901034955 | 85 | 154 | 0.0 | 0.0 | 0.00 | 0.00 | 0.00 | 48 | 1009.3 |
| 20260901034450 | 85 | 154 | 0.0 | 0.0 | 0.00 | 0.00 | 0.00 | 48 | 1009.3 |
| 20260901033943 | 85 | 154 | 0.0 | 0.0 | 0.00 | 0.00 | 0.00 | 48 | 1009.3 |
| 20260901033439 | 85 | 154 | 0.0 | 0.0 | 0.00 | 0.00 | 0.00 | 48 | 1009.3 |
| 20260901032938 | 85 | 154 | 0.0 | 0.0 | 0.00 | 0.00 | 0.00 | 48 | 1009.2 |
| 20260901032435 | 85 | 154 | 0.0 | 0.0 | 0.00 | 0.00 | 0.00 | 48 | 1009.2 |
| 20260901031935 | 85 | 154 | 0.0 | 0.0 | 0.00 | 0.00 | 0.00 | 48 | 1009.2 |
| 20260901031436 | 85 | 154 | 0.0 | 0.0 | 0.00 | 0.00 | 0.00 | 47 | 1009.1 |
| 20260901031153 | 85 | 154 | 0.0 | 0.0 | 0.00 | 0.00 | 0.00 | 47 | 1009.1 |
| 20260901030434 | 86 | 154 | 0.0 | 0.0 | 0.00 | 0.00 | 0.00 | 46 | 1009.0 |
| 20260901025933 | 86 | 154 | 0.0 | 0.0 | 0.00 | 0.00 | 0.00 | 45 | 1008.9 |
| 20260901025657 | 86 | 154 | 0.0 | 0.0 | 0.00 | 0.00 | 0.00 | 45 | 1008.9 |
| 20260901024933 | 87 | 154 | 0.0 | 0.0 | 0.00 | 0.00 | 0.00 | 44 | 1009.0 |
| 20260901024433 | 87 | 154 | 0.0 | 0.0 | 0.00 | 0.00 | 0.00 | 44 | 1009.0 |
| 20260901023933 | 87 | 154 | 0.0 | 0.0 | 0.00 | 0.00 | 0.00 | 43 | 1008.9 |
| 20260901023918 | 87 | 154 | 0.0 | 0.0 | 0.00 | 0.00 | 0.00 | 43 | 1008.8 |
| 20260901022933 | 88 | 154 | 0.0 | 0.0 | 0.00 | 0.00 | 0.00 | 42 | 1008.7 |
| 20260901022433 | 88 | 154 | 0.0 | 0.0 | 0.00 | 0.00 | 0.00 | 42 | 1008.7 |
| 20260901021934 | 88 | 154 | 0.0 | 0.0 | 0.00 | 0.00 | 0.00 | 42 | 1008.6 |
| 20260901021434 | 89 | 154 | 0.0 | 0.0 | 0.00 | 0.00 | 0.00 | 42 | 1008.5 |
| 20260901020933 | 89 | 154 | 0.0 | 0.0 | 0.00 | 0.00 | 0.00 | 41 | 1008.4 |
| 20260901020433 | 89 | 154 | 0.0 | 0.0 | 0.00 | 0.00 | 0.00 | 40 | 1008.4 |
| 20260901015933 | 90 | 154 | 0.0 | 0.0 | 0.00 | 0.00 | 0.00 | 40 | 1008.3 |
| 20260901015433 | 90 | 154 | 0.0 | 0.0 | 0.00 | 0.00 | 0.00 | 39 | 1008.3 |
| 20260901014933 | 91 | 154 | 0.0 | 0.0 | 0.00 | 0.00 | 0.00 | 39 | 1008.2 |
| 20260901014433 | 91 | 154 | 0.0 | 0.0 | 0.00 | 0.00 | 0.00 | 39 | 1008.2 |
| 20260901013933 | 91 | 154 | 0.0 | 0.0 | 0.00 | 0.00 | 0.00 | 38 | 1008.2 |
| 20260901013433 | 91 | 154 | 0.0 | 0.0 | 0.00 | 0.00 | 0.00 | 38 | 1008.2 |
| 20260901012934 | 92 | 154 | 0.0 | 0.0 | 0.00 | 0.00 | 0.00 | 38 | 1008.1 |
| 20260901012651 | 92 | 154 | 0.0 | 0.0 | 0.00 | 0.00 | 0.00 | 37 | 1008.0 |
| 20260901012153 | 92 | 154 | 0.0 | 0.0 | 0.00 | 0.00 | 0.00 | 37 | 1008.0 |
| 20260901011433 | 93 | 154 | 0.0 | 0.0 | 0.00 | 0.00 | 0.00 | 36 | 1008.0 |
| 20260901010933 | 93 | 154 | 0.0 | 0.0 | 0.00 | 0.00 | 0.00 | 36 | 1008.0 |
| 20260901010655 | 94 | 154 | 0.0 | 0.0 | 0.00 | 0.00 | 0.00 | 35 | 1007.9 |
| 20260901005934 | 94 | 153 | 0.0 | 0.0 | 0.00 | 0.00 | 0.00 | 35 | 1007.9 |
| 20260901005432 | 94 | 153 | 0.0 | 0.0 | 0.00 | 0.00 | 0.00 | 35 | 1007.9 |
| 20260901004934 | 95 | 153 | 0.0 | 0.0 | 0.00 | 0.00 | 0.00 | 34 | 1007.9 |
| 20260901004434 | 95 | 153 | 0.0 | 0.0 | 0.00 | 0.00 | 0.00 | 34 | 1007.9 |
| 20260901003931 | 95 | 153 | 0.0 | 0.0 | 0.00 | 0.00 | 0.00 | 33 | 1007.8 |
| 20260901003424 | 96 | 153 | 0.0 | 0.0 | 0.00 | 0.00 | 0.00 | 33 | 1007.8 |
| 20260901002919 | 96 | 153 | 0.0 | 0.0 | 0.00 | 0.00 | 0.00 | 32 | 1007.8 |
| 20260901002414 | 96 | 152 | 0.0 | 0.0 | 0.00 | 0.00 | 0.00 | 31 | 1007.8 |
| 20260901001913 | 97 | 149 | 0.0 | 0.0 | 0.00 | 0.00 | 0.00 | 31 | 1007.7 |
| 20260901001413 | 97 | 150 | 0.0 | 0.0 | 0.00 | 0.00 | 0.00 | 30 | 1007.7 |
| 20260901000913 | 97 | 174 | 0.0 | 0.0 | 0.00 | 0.00 | 0.00 | 30 | 1007.8 |
| 20260901000412 | 98 | 171 | 0.0 | 0.0 | 0.00 | 0.00 | 0.00 | 30 | 1007.8 |
| 20260831235911 | 98 | 167 | 0.0 | 1.0 | 0.00 | 0.00 | 0.00 | 30 | 1007.7 |
| 20260831235411 | 98 | 165 | 0.0 | 1.0 | 0.00 | 0.00 | 0.00 | 30 | 1007.8 |
| 20260831234912 | 98 | 186 | 0.0 | 9.0 | 0.00 | 0.00 | 0.00 | 29 | 1007.7 |
| 20260831234411 | 98 | 169 | 0.0 | 9.0 | 0.00 | 0.00 | 0.00 | 30 | 1007.8 |
| 20260831233909 | 99 | 166 | 0.0 | 10.0 | 0.00 | 0.00 | 0.00 | 29 | 1007.8 |
| 20260831233408 | 99 | 166 | 0.0 | 10.0 | 0.00 | 0.00 | 0.00 | 29 | 1007.7 |
| 20260831232909 | 99 | 152 | 0.0 | 4.0 | 0.00 | 0.00 | 0.00 | 28 | 1007.8 |
| 20260831232856 | 99 | 159 | 0.0 | 1.0 | 0.00 | 0.00 | 0.00 | 29 | 1007.8 |
| 20260831231911 | 99 | 155 | 0.0 | 7.0 | 0.00 | 0.00 | 0.00 | 29 | 1007.8 |
| 20260831231905 | 99 | 174 | 0.0 | 1.0 | 0.00 | 0.00 | 0.00 | 29 | 1007.8 |
| 20260831230905 | 99 | 170 | 0.0 | 7.0 | 0.00 | 0.00 | 0.00 | 29 | 1007.8 |
| 20260831230405 | 99 | 202 | 0.0 | 5.0 | 0.00 | 0.00 | 0.00 | 29 | 1007.8 |
| 20260831225905 | 100 | 186 | 0.0 | 9.0 | 0.00 | 0.00 | 0.00 | 28 | 1007.7 |
| 20260831225405 | 100 | 155 | 1.0 | 9.0 | 0.00 | 0.00 | 0.00 | 28 | 1007.7 |
| 20260831224902 | 100 | 162 | 1.0 | 10.0 | 0.00 | 0.00 | 0.00 | 28 | 1007.8 |
| 20260831224403 | 100 | 157 | 0.0 | 10.0 | 0.00 | 0.00 | 0.00 | 28 | 1007.8 |
| 20260831223903 | 100 | 180 | 0.0 | 4.0 | 0.00 | 0.00 | 0.00 | 28 | 1007.7 |
| 20260831223403 | 100 | 158 | 1.0 | 10.0 | 0.00 | 0.00 | 0.00 | 28 | 1007.8 |
| 20260831222903 | 101 | 163 | 1.0 | 10.0 | 0.00 | 0.00 | 0.00 | 28 | 1007.7 |
| 20260831222404 | 101 | 196 | 0.0 | 5.0 | 0.00 | 0.00 | 0.00 | 28 | 1007.8 |
| 20260831222125 | 100 | 167 | 0.0 | 5.0 | 0.00 | 0.00 | 0.00 | 28 | 1007.7 |
| 20260831221403 | 101 | 153 | 0.0 | 10.0 | 0.00 | 0.00 | 0.00 | 28 | 1007.7 |
| 20260831221131 | 101 | 171 | 1.0 | 10.0 | 0.00 | 0.00 | 0.00 | 27 | 1007.8 |
| 20260831220359 | 101 | 164 | 0.0 | 5.0 | 0.00 | 0.00 | 0.00 | 26 | 1007.9 |
| 20260831215859 | 101 | 248 | 0.0 | 4.0 | 0.00 | 0.00 | 0.00 | 27 | 1008.0 |
| 20260831215356 | 101 | 165 | 0.0 | 7.0 | 0.00 | 0.00 | 0.00 | 26 | 1008.0 |
| 20260831214854 | 101 | 179 | 0.0 | 7.0 | 0.00 | 0.00 | 0.00 | 26 | 1008.0 |
| 20260831214355 | 101 | 172 | 1.0 | 12.0 | 0.00 | 0.00 | 0.00 | 27 | 1008.0 |
| 20260831214121 | 101 | 188 | 1.0 | 12.0 | 0.00 | 0.00 | 0.00 | 26 | 1008.1 |
| 20260831213352 | 101 | 247 | 0.0 | 6.0 | 0.00 | 0.00 | 0.00 | 26 | 1008.1 |
| 20260831212853 | 101 | 158 | 0.0 | 6.0 | 0.00 | 0.00 | 0.00 | 27 | 1008.1 |
| 20260831212348 | 101 | 161 | 0.0 | 9.0 | 0.00 | 0.00 | 0.00 | 27 | 1008.0 |
| 20260831211847 | 101 | 163 | 0.0 | 13.0 | 0.00 | 0.00 | 0.00 | 27 | 1008.1 |
| 20260831211345 | 101 | 138 | 1.0 | 13.0 | 0.00 | 0.00 | 0.00 | 27 | 1008.2 |
| 20260831211107 | 101 | 164 | 1.0 | 9.0 | 0.00 | 0.00 | 0.00 | 27 | 1008.2 |
| 20260831210345 | 102 | 177 | 0.0 | 10.0 | 0.00 | 0.00 | 0.00 | 27 | 1008.2 |
| 20260831205845 | 102 | 187 | 0.0 | 10.0 | 0.00 | 0.00 | 0.00 | 27 | 1008.3 |
| 20260831205345 | 102 | 140 | 0.0 | 7.0 | 0.00 | 0.00 | 0.00 | 27 | 1008.4 |
| 20260831205328 | 101 | 165 | 0.0 | 7.0 | 0.00 | 0.00 | 0.00 | 27 | 1008.4 |
| 20260831204344 | 101 | 164 | 0.0 | 5.0 | 0.00 | 0.00 | 0.00 | 28 | 1008.5 |
| 20260831203844 | 101 | 165 | 1.0 | 11.0 | 0.00 | 0.00 | 0.00 | 27 | 1008.5 |
| 20260831203345 | 101 | 152 | 1.0 | 11.0 | 0.00 | 0.00 | 0.00 | 27 | 1008.7 |
| 20260831202845 | 101 | 169 | 0.0 | 6.0 | 0.00 | 0.00 | 0.00 | 27 | 1008.7 |
| 20260831202345 | 101 | 165 | 0.0 | 6.0 | 0.00 | 0.00 | 0.00 | 27 | 1008.8 |
| 20260831201844 | 101 | 182 | 1.0 | 11.0 | 0.00 | 0.00 | 0.00 | 28 | 1008.8 |
| 20260831201343 | 101 | 190 | 1.0 | 12.0 | 0.00 | 0.00 | 0.00 | 27 | 1008.8 |
| 20260831201106 | 101 | 161 | 1.0 | 12.0 | 0.00 | 0.00 | 0.00 | 28 | 1008.7 |
| 20260831200343 | 101 | 161 | 0.0 | 8.0 | 0.00 | 0.00 | 0.00 | 29 | 1008.8 |
| 20260831195842 | 101 | 130 | 1.0 | 8.0 | 0.00 | 0.00 | 0.00 | 29 | 1008.9 |
| 20260831195343 | 101 | 158 | 1.0 | 9.0 | 0.00 | 0.00 | 0.00 | 28 | 1009.0 |
| 20260831194843 | 101 | 180 | 1.0 | 9.0 | 0.00 | 0.00 | 0.00 | 28 | 1009.1 |
| 20260831194602 | 101 | 165 | 0.0 | 8.0 | 0.00 | 0.00 | 0.00 | 29 | 1009.1 |
| 20260831193845 | 101 | 170 | 0.0 | 4.0 | 0.00 | 0.00 | 0.00 | 28 | 1009.1 |
| 20260831193339 | 101 | 286 | 0.0 | 7.0 | 0.00 | 0.00 | 0.00 | 28 | 1009.2 |
| 20260831192839 | 101 | 185 | 0.0 | 7.0 | 0.00 | 0.00 | 0.00 | 29 | 1009.3 |
| 20260831192823 | 101 | 184 | 0.0 | 4.0 | 0.00 | 0.00 | 0.00 | 30 | 1009.4 |
| 20260831192104 | 101 | 178 | 0.0 | 4.0 | 0.00 | 0.00 | 0.00 | 29 | 1009.5 |
| 20260831191339 | 101 | 241 | 0.0 | 5.0 | 0.00 | 0.00 | 0.00 | 30 | 1009.5 |
| 20260831190838 | 101 | 180 | 0.0 | 5.0 | 0.00 | 0.00 | 0.00 | 30 | 1009.5 |
| 20260831190339 | 101 | 181 | 0.0 | 5.0 | 0.00 | 0.00 | 0.00 | 30 | 1009.6 |
| 20260831190101 | 100 | 140 | 0.0 | 10.0 | 0.00 | 0.00 | 0.00 | 30 | 1009.6 |
| 20260831185335 | 100 | 171 | 1.0 | 10.0 | 0.00 | 0.00 | 0.00 | 30 | 1009.6 |
| 20260831185056 | 100 | 166 | 1.0 | 9.0 | 0.00 | 0.00 | 0.00 | 30 | 1009.7 |
| 20260831184600 | 100 | 216 | 1.0 | 9.0 | 0.00 | 0.00 | 0.00 | 31 | 1009.7 |
| 20260831183835 | 100 | 181 | 0.0 | 5.0 | 0.00 | 0.00 | 0.00 | 32 | 1009.7 |
| 20260831183334 | 99 | 153 | 0.0 | 9.0 | 0.00 | 0.00 | 0.00 | 32 | 1009.8 |
| 20260831182834 | 100 | 192 | 1.0 | 11.0 | 0.00 | 0.00 | 0.00 | 30 | 1009.9 |
| 20260831182334 | 100 | 192 | 0.0 | 11.0 | 0.00 | 0.00 | 0.00 | 30 | 1009.9 |
| 20260831181833 | 100 | 184 | 0.0 | 7.0 | 0.00 | 0.00 | 0.00 | 30 | 1009.8 |
| 20260831181334 | 99 | 208 | 0.0 | 9.0 | 0.00 | 0.00 | 0.00 | 31 | 1009.9 |
| 20260831180833 | 100 | 165 | 0.0 | 9.0 | 0.00 | 0.00 | 0.00 | 31 | 1010.0 |
| 20260831180332 | 100 | 166 | 0.0 | 9.0 | 0.00 | 0.00 | 0.00 | 31 | 1010.1 |
| 20260831175830 | 99 | 179 | 0.0 | 9.0 | 0.00 | 0.00 | 0.00 | 32 | 1010.1 |
| 20260831175315 | 99 | 185 | 0.0 | 8.0 | 0.00 | 0.00 | 0.00 | 32 | 1010.2 |
| 20260831174805 | 99 | 188 | 0.0 | 8.0 | 0.00 | 0.00 | 0.00 | 32 | 1010.2 |
| 20260831174306 | 99 | 195 | 1.0 | 10.0 | 0.00 | 0.00 | 0.00 | 32 | 1010.3 |
| 20260831173805 | 98 | 179 | 1.0 | 10.0 | 0.00 | 0.00 | 0.00 | 32 | 1010.4 |
| 20260831173531 | 99 | 200 | 1.0 | 9.0 | 0.00 | 0.00 | 0.00 | 32 | 1010.4 |
| 20260831173020 | 97 | 222 | 1.0 | 10.0 | 0.00 | 0.00 | 0.00 | 33 | 1010.6 |
| 20260831173015 | 98 | 179 | 0.0 | 7.0 | 0.00 | 0.00 | 0.00 | 33 | 1010.5 |
| 20260831173007 | 98 | 190 | 0.0 | 10.0 | 0.00 | 0.00 | 0.00 | 33 | 1010.5 |
| 20260831172959 | 98 | 173 | 1.0 | 10.0 | 0.00 | 0.00 | 0.00 | 34 | 1010.6 |
| 20260831171305 | 97 | 222 | 1.0 | 10.0 | 0.00 | 0.00 | 0.00 | 33 | 1010.6 |
| 20260831170806 | 97 | 196 | 1.0 | 11.0 | 0.00 | 0.00 | 0.00 | 34 | 1010.8 |
| 20260831170305 | 97 | 197 | 1.0 | 11.0 | 0.00 | 0.00 | 0.00 | 34 | 1010.8 |
| 20260831170025 | 97 | 177 | 0.0 | 4.0 | 0.00 | 0.00 | 0.00 | 36 | 1010.9 |
| 20260831165305 | 97 | 197 | 0.0 | 5.0 | 0.00 | 0.00 | 0.00 | 36 | 1010.9 |
| 20260831164805 | 97 | 174 | 0.0 | 5.0 | 0.00 | 0.00 | 0.00 | 38 | 1010.9 |
| 20260831164304 | 96 | 169 | 0.0 | 7.0 | 0.00 | 0.00 | 0.00 | 38 | 1010.9 |
| 20260831163805 | 96 | 165 | 0.0 | 7.0 | 0.00 | 0.00 | 0.00 | 38 | 1011.0 |
| 20260831163305 | 96 | 166 | 0.0 | 1.0 | 0.00 | 0.00 | 0.00 | 39 | 1011.0 |
| 20260831163030 | 95 | 236 | 0.0 | 1.0 | 0.00 | 0.00 | 0.00 | 40 | 1010.9 |
| 20260831162755 | 95 | 171 | 0.0 | 1.0 | 0.00 | 0.00 | 0.00 | 40 | 1010.9 |
| 20260831161801 | 94 | 178 | 0.0 | 2.0 | 0.00 | 0.00 | 0.00 | 42 | 1011.0 |
| 20260831161300 | 94 | 178 | 0.0 | 2.0 | 0.00 | 0.00 | 0.00 | 42 | 1011.0 |
| 20260831161027 | 93 | 177 | 0.0 | 1.0 | 0.00 | 0.00 | 0.00 | 42 | 1010.9 |
| 20260831160257 | 93 | 171 | 0.0 | 1.0 | 0.00 | 0.00 | 0.00 | 43 | 1011.0 |
| 20260831160023 | 92 | 164 | 0.0 | 7.0 | 0.00 | 0.00 | 0.00 | 45 | 1011.0 |
| 20260831155259 | 92 | 159 | 0.0 | 7.0 | 0.00 | 0.00 | 0.00 | 45 | 1011.0 |
| 20260831155015 | 92 | 186 | 0.0 | 2.0 | 0.00 | 0.00 | 0.00 | 45 | 1011.0 |
| 20260831154255 | 91 | 178 | 0.0 | 2.0 | 0.00 | 0.00 | 0.00 | 46 | 1011.1 |
| 20260831153751 | 91 | 178 | 0.0 | 4.0 | 0.00 | 0.00 | 0.00 | 46 | 1011.1 |
| 20260831153250 | 90 | 178 | 0.0 | 4.0 | 0.00 | 0.00 | 0.00 | 47 | 1011.1 |
| 20260831152749 | 90 | 202 | 0.0 | 4.0 | 0.00 | 0.00 | 0.00 | 47 | 1011.2 |
| 20260831152248 | 90 | 226 | 0.0 | 3.0 | 0.00 | 0.00 | 0.00 | 47 | 1011.2 |
| 20260831151748 | 89 | 232 | 0.0 | 2.0 | 0.00 | 0.00 | 0.00 | 48 | 1011.2 |
| 20260831151246 | 88 | 178 | 0.0 | 1.0 | 0.00 | 0.00 | 0.00 | 49 | 1011.1 |
| 20260831151005 | 88 | 178 | 0.0 | 1.0 | 0.00 | 0.00 | 0.00 | 49 | 1011.1 |
| 20260831150242 | 87 | 186 | 0.0 | 1.0 | 0.00 | 0.00 | 0.00 | 50 | 1011.1 |
| 20260831145741 | 87 | 187 | 0.0 | 3.0 | 0.00 | 0.00 | 0.00 | 52 | 1011.2 |
| 20260831145239 | 86 | 182 | 0.0 | 4.0 | 0.00 | 0.00 | 0.00 | 53 | 1011.2 |
| 20260831144737 | 85 | 184 | 0.0 | 4.0 | 0.00 | 0.00 | 0.00 | 53 | 1011.2 |
| 20260831144234 | 85 | 182 | 0.0 | 1.0 | 0.00 | 0.00 | 0.00 | 54 | 1011.2 |
| 20260831143732 | 85 | 182 | 0.0 | 1.0 | 0.00 | 0.00 | 0.00 | 54 | 1011.3 |
| 20260831143233 | 84 | 182 | 0.0 | 1.0 | 0.00 | 0.00 | 0.00 | 55 | 1011.3 |
| 20260831142733 | 83 | 182 | 0.0 | 1.0 | 0.00 | 0.00 | 0.00 | 56 | 1011.3 |
| 20260831142718 | 83 | 181 | 0.0 | 1.0 | 0.00 | 0.00 | 0.00 | 57 | 1011.2 |
| 20260831141733 | 82 | 177 | 0.0 | 1.0 | 0.00 | 0.00 | 0.00 | 57 | 1011.3 |
| 20260831141233 | 82 | 176 | 0.0 | 4.0 | 0.00 | 0.00 | 0.00 | 58 | 1011.2 |
| 20260831140733 | 81 | 176 | 0.0 | 4.0 | 0.00 | 0.00 | 0.00 | 58 | 1011.2 |
| 20260831140453 | 81 | 184 | 0.0 | 2.0 | 0.00 | 0.00 | 0.00 | 59 | 1011.3 |
| 20260831135733 | 81 | 177 | 0.0 | 9.0 | 0.00 | 0.00 | 0.00 | 59 | 1011.3 |
| 20260831135234 | 80 | 177 | 0.0 | 9.0 | 0.00 | 0.00 | 0.00 | 59 | 1011.2 |
| 20260831134733 | 80 | 175 | 0.0 | 1.0 | 0.00 | 0.00 | 0.00 | 60 | 1011.2 |
| 20260831134715 | 79 | 175 | 0.0 | 0.0 | 0.00 | 0.00 | 0.00 | 61 | 1011.1 |
| 20260831133733 | 79 | 175 | 0.0 | 0.0 | 0.00 | 0.00 | 0.00 | 61 | 1011.1 |
| 20260831133233 | 78 | 171 | 0.0 | 2.0 | 0.00 | 0.00 | 0.00 | 62 | 1011.0 |
| 20260831132733 | 78 | 170 | 0.0 | 2.0 | 0.00 | 0.00 | 0.00 | 62 | 1011.0 |
| 20260831132234 | 78 | 169 | 0.0 | 1.0 | 0.00 | 0.00 | 0.00 | 63 | 1011.0 |
| 20260831131733 | 77 | 167 | 0.0 | 1.0 | 0.00 | 0.00 | 0.00 | 64 | 1011.0 |
| 20260831131233 | 77 | 164 | 0.0 | 0.0 | 0.00 | 0.00 | 0.00 | 64 | 1010.9 |
| 20260831130726 | 77 | 163 | 0.0 | 1.0 | 0.00 | 0.00 | 0.00 | 65 | 1010.9 |
| 20260831130220 | 76 | 163 | 0.0 | 1.0 | 0.00 | 0.00 | 0.00 | 65 | 1010.9 |
| 20260831125938 | 76 | 165 | 0.0 | 0.0 | 0.00 | 0.00 | 0.00 | 66 | 1010.8 |
| 20260831125212 | 76 | 166 | 0.0 | 0.0 | 0.00 | 0.00 | 0.00 | 67 | 1010.8 |
| 20260831124937 | 75 | 167 | 0.0 | 0.0 | 0.00 | 0.00 | 0.00 | 67 | 1010.7 |
| 20260831124434 | 75 | 166 | 0.0 | 0.0 | 0.00 | 0.00 | 0.00 | 68 | 1010.6 |
| 20260831123712 | 75 | 166 | 0.0 | 0.0 | 0.00 | 0.00 | 0.00 | 68 | 1010.6 |
| 20260831123210 | 74 | 167 | 0.0 | 0.0 | 0.00 | 0.00 | 0.00 | 69 | 1010.5 |
| 20260831122707 | 74 | 166 | 0.0 | 0.0 | 0.00 | 0.00 | 0.00 | 69 | 1010.4 |
| 20260831122427 | 74 | 167 | 0.0 | 0.0 | 0.00 | 0.00 | 0.00 | 69 | 1010.3 |
| 20260831121704 | 74 | 167 | 0.0 | 0.0 | 0.00 | 0.00 | 0.00 | 69 | 1010.4 |
| 20260831121205 | 74 | 167 | 0.0 | 0.0 | 0.00 | 0.00 | 0.00 | 69 | 1010.3 |
| 20260831120705 | 74 | 167 | 0.0 | 0.0 | 0.00 | 0.00 | 0.00 | 69 | 1010.2 |
| 20260831120205 | 74 | 167 | 0.0 | 0.0 | 0.00 | 0.00 | 0.00 | 69 | 1010.1 |
| 20260831115705 | 74 | 166 | 0.0 | 0.0 | 0.00 | 0.00 | 0.00 | 69 | 1010.2 |
| 20260831115427 | 74 | 167 | 0.0 | 0.0 | 0.00 | 0.00 | 0.00 | 69 | 1010.1 |
| 20260831114705 | 74 | 167 | 0.0 | 0.0 | 0.00 | 0.00 | 0.00 | 69 | 1010.1 |
| 20260831114428 | 74 | 167 | 0.0 | 0.0 | 0.00 | 0.00 | 0.00 | 69 | 1010.0 |
| 20260831113705 | 74 | 167 | 0.0 | 0.0 | 0.00 | 0.00 | 0.00 | 69 | 1009.9 |
| 20260831113205 | 74 | 167 | 0.0 | 0.0 | 0.00 | 0.00 | 0.00 | 69 | 1009.9 |
| 20260831112711 | 74 | 166 | 0.0 | 0.0 | 0.00 | 0.00 | 0.00 | 69 | 1009.9 |
| 20260831112202 | 74 | 167 | 0.0 | 0.0 | 0.00 | 0.00 | 0.00 | 69 | 1009.8 |
| 20260831111656 | 74 | 167 | 0.0 | 0.0 | 0.00 | 0.00 | 0.00 | 69 | 1009.8 |
| 20260831111156 | 74 | 166 | 0.0 | 0.0 | 0.00 | 0.00 | 0.00 | 68 | 1009.8 |
| 20260831110654 | 74 | 167 | 0.0 | 0.0 | 0.00 | 0.00 | 0.00 | 67 | 1009.6 |
| 20260831110155 | 75 | 167 | 0.0 | 0.0 | 0.00 | 0.00 | 0.00 | 67 | 1009.6 |
| 20260831105658 | 75 | 167 | 0.0 | 0.0 | 0.00 | 0.00 | 0.00 | 67 | 1009.5 |
| 20260831105157 | 75 | 166 | 0.0 | 0.0 | 0.00 | 0.00 | 0.00 | 67 | 1009.4 |
| 20260831104655 | 75 | 166 | 0.0 | 0.0 | 0.00 | 0.00 | 0.00 | 66 | 1009.4 |
| 20260831104417 | 75 | 166 | 0.0 | 0.0 | 0.00 | 0.00 | 0.00 | 66 | 1009.3 |
| 20260831103652 | 76 | 166 | 0.0 | 0.0 | 0.00 | 0.00 | 0.00 | 65 | 1009.3 |
| 20260831103152 | 76 | 166 | 0.0 | 0.0 | 0.00 | 0.00 | 0.00 | 65 | 1009.2 |
| 20260831102650 | 76 | 167 | 0.0 | 0.0 | 0.00 | 0.00 | 0.00 | 65 | 1009.1 |
| 20260831102150 | 76 | 166 | 0.0 | 0.0 | 0.00 | 0.00 | 0.00 | 65 | 1009.1 |
| 20260831101649 | 76 | 166 | 0.0 | 0.0 | 0.00 | 0.00 | 0.00 | 64 | 1009.0 |
| 20260831101150 | 76 | 166 | 0.0 | 0.0 | 0.00 | 0.00 | 0.00 | 64 | 1009.0 |
| 20260831100650 | 77 | 167 | 0.0 | 1.0 | 0.00 | 0.00 | 0.00 | 63 | 1008.9 |
| 20260831100150 | 77 | 166 | 0.0 | 1.0 | 0.00 | 0.00 | 0.00 | 63 | 1008.9 |
| 20260831095650 | 77 | 167 | 0.0 | 0.0 | 0.00 | 0.00 | 0.00 | 63 | 1008.9 |
| 20260831095148 | 77 | 167 | 0.0 | 0.0 | 0.00 | 0.00 | 0.00 | 62 | 1008.9 |
| 20260831094648 | 77 | 167 | 0.0 | 0.0 | 0.00 | 0.00 | 0.00 | 62 | 1008.9 |
| 20260831094146 | 78 | 167 | 0.0 | 0.0 | 0.00 | 0.00 | 0.00 | 62 | 1008.9 |
| 20260831093644 | 78 | 167 | 0.0 | 0.0 | 0.00 | 0.00 | 0.00 | 62 | 1008.8 |
| 20260831093405 | 78 | 167 | 0.0 | 0.0 | 0.00 | 0.00 | 0.00 | 61 | 1008.8 |
| 20260831092644 | 78 | 166 | 0.0 | 0.0 | 0.00 | 0.00 | 0.00 | 61 | 1008.8 |
| 20260831092633 | 78 | 166 | 0.0 | 0.0 | 0.00 | 0.00 | 0.00 | 61 | 1008.7 |
| 20260831091643 | 78 | 166 | 0.0 | 1.0 | 0.00 | 0.00 | 0.00 | 61 | 1008.7 |
| 20260831091142 | 78 | 167 | 0.0 | 1.0 | 0.00 | 0.00 | 0.00 | 60 | 1008.6 |
| 20260831090642 | 78 | 167 | 0.0 | 0.0 | 0.00 | 0.00 | 0.00 | 60 | 1008.6 |
| 20260831090142 | 78 | 167 | 0.0 | 4.0 | 0.00 | 0.00 | 0.00 | 60 | 1008.6 |
| 20260831085640 | 79 | 167 | 0.0 | 4.0 | 0.00 | 0.00 | 0.00 | 59 | 1008.6 |
| 20260831085139 | 79 | 167 | 0.0 | 0.0 | 0.00 | 0.00 | 0.00 | 59 | 1008.6 |
| 20260831084640 | 79 | 167 | 0.0 | 0.0 | 0.00 | 0.00 | 0.00 | 59 | 1008.6 |
| 20260831084138 | 79 | 167 | 0.0 | 0.0 | 0.00 | 0.00 | 0.00 | 59 | 1008.6 |
| 20260831083637 | 79 | 167 | 0.0 | 0.0 | 0.00 | 0.00 | 0.00 | 58 | 1008.6 |
| 20260831083137 | 79 | 167 | 0.0 | 0.0 | 0.00 | 0.00 | 0.00 | 58 | 1008.6 |
| 20260831082638 | 79 | 167 | 0.0 | 0.0 | 0.00 | 0.00 | 0.00 | 58 | 1008.5 |
| 20260831082138 | 79 | 167 | 0.0 | 0.0 | 0.00 | 0.00 | 0.00 | 58 | 1008.5 |
| 20260831081637 | 80 | 167 | 0.0 | 3.0 | 0.00 | 0.00 | 0.00 | 57 | 1008.4 |
| 20260831081138 | 80 | 167 | 0.0 | 3.0 | 0.00 | 0.00 | 0.00 | 57 | 1008.3 |
| 20260831080907 | 80 | 167 | 0.0 | 1.0 | 0.00 | 0.00 | 0.00 | 57 | 1008.3 |
| 20260831080133 | 80 | 167 | 0.0 | 1.0 | 0.00 | 0.00 | 0.00 | 57 | 1008.3 |
| 20260831075634 | 80 | 167 | 0.0 | 0.0 | 0.00 | 0.00 | 0.00 | 57 | 1008.2 |
| 20260831075134 | 80 | 167 | 0.0 | 0.0 | 0.00 | 0.00 | 0.00 | 57 | 1008.3 |
| 20260831074633 | 80 | 167 | 0.0 | 0.0 | 0.00 | 0.00 | 0.00 | 57 | 1008.2 |
| 20260831074133 | 80 | 167 | 0.0 | 0.0 | 0.00 | 0.00 | 0.00 | 57 | 1008.3 |
| 20260831073634 | 80 | 167 | 0.0 | 0.0 | 0.00 | 0.00 | 0.00 | 56 | 1008.4 |
| 20260831073133 | 80 | 167 | 0.0 | 0.0 | 0.00 | 0.00 | 0.00 | 56 | 1008.3 |
| 20260831072634 | 80 | 167 | 0.0 | 0.0 | 0.00 | 0.00 | 0.00 | 56 | 1008.2 |
| 20260831072354 | 80 | 167 | 0.0 | 0.0 | 0.00 | 0.00 | 0.00 | 55 | 1008.2 |
| 20260831071634 | 81 | 167 | 0.0 | 1.0 | 0.00 | 0.00 | 0.00 | 55 | 1008.3 |
| 20260831071134 | 81 | 167 | 0.0 | 1.0 | 0.00 | 0.00 | 0.00 | 55 | 1008.3 |
| 20260831070634 | 81 | 167 | 0.0 | 0.0 | 0.00 | 0.00 | 0.00 | 54 | 1008.2 |
| 20260831070134 | 81 | 167 | 0.0 | 0.0 | 0.00 | 0.00 | 0.00 | 54 | 1008.2 |
| 20260831065632 | 82 | 166 | 0.0 | 0.0 | 0.00 | 0.00 | 0.00 | 54 | 1008.3 |
| 20260831065134 | 82 | 167 | 0.0 | 1.0 | 0.00 | 0.00 | 0.00 | 53 | 1008.3 |
| 20260831064633 | 82 | 166 | 0.0 | 1.0 | 0.00 | 0.00 | 0.00 | 53 | 1008.3 |
| 20260831064133 | 82 | 166 | 0.0 | 1.0 | 0.00 | 0.00 | 0.00 | 53 | 1008.3 |
| 20260831063634 | 82 | 167 | 0.0 | 5.0 | 0.00 | 0.00 | 0.00 | 52 | 1008.3 |
| 20260831063131 | 82 | 167 | 0.0 | 5.0 | 0.00 | 0.00 | 0.00 | 52 | 1008.3 |
| 20260831062625 | 82 | 178 | 0.0 | 7.0 | 0.00 | 0.00 | 0.00 | 52 | 1008.2 |
| 20260831062119 | 82 | 179 | 0.0 | 7.0 | 0.00 | 0.00 | 0.00 | 52 | 1008.2 |
| 20260831061613 | 83 | 173 | 0.0 | 1.0 | 0.00 | 0.00 | 0.00 | 51 | 1008.2 |
| 20260831061105 | 83 | 171 | 0.0 | 1.0 | 0.00 | 0.00 | 0.00 | 51 | 1008.2 |
| 20260831060605 | 83 | 172 | 0.0 | 1.0 | 0.00 | 0.00 | 0.00 | 51 | 1008.1 |